Miscellaneous Local Product
Issued by NWS Hastings, NE

Home | Current Version | Previous Version | Graphics & Text | Print | Product List | Glossary On
Versions: 1 2 3 4 5 6 7 8 9 10 11 12 13 14 15 16 17 18 19 20 21 22 23 24 25 26 27 28 29 30 31 32 33 34 35 36 37 38 39 40 41 42 43 44 45 46 47 48 49 50
000
AXUS43 KGID 182102
MISGRI

GID CWA HOURLY WEATHER ROUNDUP
NATIONAL WEATHER SERVICE HASTINGS NE
300 PM CST THU DEC 18 2014

NOTE: "FAIR" INDICATES FEW OR NO CLOUDS BELOW 12,000 FEET WITH NO
SIGNIFICANT WEATHER AND/OR OBSTRUCTIONS TO VISIBILITY.

...SOUTH CENTRAL NEBRASKA...

CITY           SKY/WX    TMP DP  RH WIND       PRES   REMARKS
GRAND ISLAND   CLOUDY    29  24  82 S5        30.15S WCI  24
HASTINGS       CLOUDY    30  24  78 VRB3      30.13S
KEARNEY        CLOUDY    28  25  86 S8        30.12S WCI  20
ORD            NOT AVBL
YORK           CLOUDY    28  25  86 S3        30.16S
AURORA         CLOUDY    30  26  86 S3        30.15S
LEXINGTON      CLOUDY    29  26  86 SW6       30.10F WCI  23
HOLDREGE       CLOUDY    29  25  84 W9        30.10F WCI  21
HEBRON         CLOUDY    31  25  78 CALM      30.17S

...NEBRASKA PANHANDLE...

CITY           SKY/WX    TMP DP  RH WIND       PRES   REMARKS
CHADRON        SUNNY     36  24  62 W12       30.01F WCI  28
ALLIANCE       SUNNY     30  26  85 W6        30.00F WCI  24
SCOTTSBLUFF    FAIR      21  17  84 CALM      30.02F FOG
SIDNEY         MOSUNNY   39  26  59 NW6       30.02S WCI  35

...WESTERN AND NORTH CENTRAL NEBRASKA...

CITY           SKY/WX    TMP DP  RH WIND       PRES   REMARKS
VALENTINE      MOSUNNY   27  23  85 SW6       30.04F WCI  20
AINSWORTH      CLOUDY    27  24  90 W8        30.05S WCI  19
ONEILL         CLOUDY    28  26  94 S5        30.10F WCI  23
BROKEN BOW     CLOUDY    29  26  89 W8        30.08S WCI  21
IMPERIAL       PTSUNNY   28  24  85 SW5       30.06S WCI  23
NORTH PLATTE   CLOUDY    28  25  88 W6        30.07F FOG     WCI  22
MCCOOK         CLOUDY    29  26  89 SW7       30.10S WCI  22

...EASTERN NEBRASKA...

CITY           SKY/WX    TMP DP  RH WIND       PRES   REMARKS
NORFOLK        CLOUDY    29  23  78 S6        30.14F WCI  23
SO SIOUX CITY  CLOUDY    31  23  72 SE5       30.19F WCI  26
TEKAMAH        CLOUDY    31  25  78 S6        30.20F WCI  25
COLUMBUS       CLOUDY    28  21  74 S5        30.18S WCI  23
ALBION         CLOUDY    28  23  80 S6        30.13F WCI  22
OMAHA EPPLEY   CLOUDY    31  26  82 SE7       30.21F WCI  24
OFFUTT AFB     CLOUDY    31  26  83 SE6       30.20S WCI  25
MILLARD        CLOUDY    32  26  78 S3        30.20S
LINCOLN        CLOUDY    32  26  78 S3        30.20S
NEBRASKA CITY  CLOUDY    30  28  89 SE3       30.19S
BEATRICE       CLOUDY    31  28  86 CALM      30.17F
FALLS CITY     CLOUDY    30  26  85 E5        30.20S WCI  25

...NORTHERN KANSAS...

CITY           SKY/WX    TMP DP  RH WIND       PRES   REMARKS
GOODLAND       MOSUNNY  N/A N/A N/A NW3       30.05S
HILL CITY      CLOUDY    31  27  85 W3        30.13F
NORTON         CLOUDY    30  25  80 SW8       30.11S WCI  23
PHILLIPSBURG   CLOUDY    36  28  75 CALM      30.15S
SMITH CENTER   CLOUDY    28  27  93 CALM      30.16S
BELOIT         CLOUDY    30  27  86 CALM      30.18R
HAYS           CLOUDY    34  21  60 W3        30.14S
RUSSELL        CLOUDY    31  28  89 CALM      30.14R
CONCORDIA      CLOUDY    30  26  85 CALM      30.17S
SALINA         CLOUDY    32  27  81 NW5       30.19R WCI  27
TOPEKA         CLOUDY    34  30  85 CALM      30.20S



USA.gov is the U.S. government's official web portal to all federal, state and local government web resources and services.